KUIPER-00102

导读

KUIPER-00102是美国亚马逊柯伊伯(Kuiper)卫星互联网项目的卫星,于2025年8月11日发射。该项目旨在通过数千颗低轨卫星,为全球尤其是偏远地区提供高速低延迟、价格可负担的互联网接入。卫星配备多波束相控阵天线与高增益抛物面天线,可灵活分配容量,计划采用激光星间链路实现高速组网,工作于Ka频段,是亚马逊布局低轨卫星互联网的重要组成部分。

Basic Information
目录编号:
65140
目录名称:
KUIPER-00102
国际标识:
2025-171J
轨道中心:
EARTH
卫星名称:
KUIPER-00102
卫星全名:
KUIPER-00102
卫星状态:
在轨 (已飞行309 天)
发射日期:
2025-08-11 UTC
国别 :
美国 (US)
星等 :
--
Orbit Information
数据来源 国际轨道数据 AOE轨道数据
星历时间 2026-06-16T08:08:59+0800
12小时前
查看轨道信息
2026-06-15T23:00:00+0800
21小时前
查看轨道信息
半长轴 7007.672km 7007.714km
偏心率 0.0000669 0.0002449
轨道倾角 51.898° 51.896°
近地点辐角 106.517° 42.738°
升交点赤经 78.304° 80.000°
平近点角 253.586° 84.931°
近地点 629.066km 627.86km
远地点 630.004km 631.294km
周期 97.302分钟 97.303分钟
每日圈数 14.799335 14.7992
Detailed Information
使用方式:
暂无
2D Orbit Map
3D Orbit Map
Orbit Altitude Analysis Chart
Orbit Inclination Analysis Chart
Orbit Comprehensive Analysis Chart
View Comprehensive Chart